Home > Weather > Aspen > Past weeks

Flag for USA Past Weather in Aspen, Colorado, USA — Yesterday and Last 2 Weeks

Now
86 °F

Scattered clouds.


Feels Like: 83 °F
Forecast: 52 / 84 °F
Wind: 10 mph from West

Location: Aspen-Pitkin County Airport

Current Time: Jun 28, 2016 at 2:33:18 PM

Latest Report: Jun 28, 2016 at 1:53 PM


Visibility: 10 mi

Pressure: 30.01 "Hg (22.87 "Hg at 2411m altitude)

Humidity: 13%

Dew Point: 29 °F

Location of AspenLocation

Past Weather in Aspen — Graph

°F

Aspen Temperature Yesterday

Maximum temperature yesterday: 84 °F (at 1:53 PM)
Minimum temperature yesterday: 47 °F (at 4:53 AM)
Average temperature yesterday: 66 °F

High & Low Weather Summary for the Past Weeks

 TemperatureHumidityPressure
High90 °F (Jun 20, 1:53 PM)92% (Jun 14, 3:53 AM)30.29 "Hg (Jun 14, 3:53 AM)
Low35 °F (Jun 14, 5:53 AM)9% (Jun 18, 2:53 PM)29.70 "Hg (Jun 15, 6:53 PM)
Average65 °F39%29.96 "Hg
* Reported Jun 13 12:53 PM — Jun 28 12:53 PM, Aspen, Weather by CustomWeather, © 2016

Note: Actual official high and low records may vary slightly from our data, if they occured in-between our weather recording intervals... More about our weather records

Advertising

Aspen Weather History for the Previous 24 Hours

Scroll right to see more
 ConditionsComfort  
Time TempWeatherWind HumidityBarometerVisibility
12:53 PM
Tue, Jun 28
84 °FPassing clouds.6 mph12%30.04 "Hg10 mi
11:53 AM80 °FPassing clouds.5 mph25%30.06 "Hg10 mi
10:53 AM76 °FSunny.7 mph27%30.10 "Hg10 mi
9:53 AM70 °FPassing clouds.7 mph35%30.11 "Hg10 mi
8:53 AM67 °FSunny.8 mph41%30.11 "Hg10 mi
7:53 AM62 °FSunny.No wind44%30.09 "Hg10 mi
6:53 AM54 °FSunny.No wind51%30.10 "Hg10 mi
5:53 AM49 °FClear.No wind55%30.11 "Hg10 mi
4:53 AM49 °FClear.No wind55%30.11 "Hg10 mi
3:53 AM51 °FClear.8 mph46%30.10 "Hg10 mi
2:53 AM51 °FClear.7 mph46%30.09 "Hg10 mi
1:53 AM54 °FClear.9 mph40%30.09 "Hg10 mi
12:53 AM54 °FClear.10 mph40%30.09 "Hg10 mi
11:53 PM
Mon, Jun 27
55 °FClear.10 mph40%30.11 "Hg10 mi
10:53 PM58 °FClear.13 mph36%30.11 "Hg10 mi
9:53 PM61 °FClear.9 mph31%30.11 "Hg10 mi
8:53 PM66 °FSunny.8 mph26%30.08 "Hg10 mi
7:53 PM76 °FSunny.8 mph14%30.05 "Hg10 mi
6:53 PM81 °FSunny.9 mph13%30.05 "Hg10 mi
5:53 PM82 °FPassing clouds.6 mph14%30.05 "Hg10 mi
4:53 PM83 °FPassing clouds.7 mph12%30.05 "Hg10 mi
3:53 PM83 °FPassing clouds.9 mph11%30.06 "Hg10 mi
2:53 PM84 °FSunny.14 mph10%30.06 "Hg10 mi
Weather by CustomWeather, © 2016

See weather overviewHow to use our weather pages